Location: Casteau
(50.5142°N, 4.0161°E)
Time: 05:24:48
(UTC+00:00)

Vanguard 1 Rocket - Pass Details

Date: 30 July 2021
Orbit: 650 x 4226 km, 34.3° (Epoch: 21 September)

Event Time Altitude Azimuth Distance (km) Brightness Sun altitude
Rises 06:48:17 0° 180° (S) 8,270 12.3 23.2°
Reaches altitude 10° 07:04:14 10° 145° (SE) 6,280 12.3 25.8°
Maximum altitude 07:05:15 10° 142° (SE) 6,187 12.3 25.9°
Drops below altitude 10° 07:06:16 10° 139° (SE) 6,103 12.3 26.1°
Sets 07:17:38 0° 101° (E) 5,914 12.8 27.9°
